Home   Weather   Vitória da Conquista   Past weeks
Flag for Brazil

Past Weather in Vitória da Conquista, Bahia, Brazil — Yesterday and Last 2 Weeks

Now
79 °F

Passing clouds.


Feels Like: 82 °F
Forecast: 79 / 68 °F
Wind: 3 mph from Northwest

Location: Salvador Aeroporto

Current Time: Feb 23, 2020 at 6:23:43 am

Latest Report: Feb 23, 2020 at 6:00 am


Visibility: N/A

Pressure: 29.92 "Hg (27.03 "Hg at 889m altitude)

Humidity: 79%

Dew Point: 72 °F

Location of Vitória da ConquistaLocation

Past Weather in Vitória da Conquista — Graph

°F

Vitória da Conquista Temperature Yesterday

Maximum temperature yesterday: 90 °F (at 11:00 am)
Minimum temperature yesterday: 79 °F (at 5:00 am)
Average temperature yesterday: 84 °F

High & Low Weather Summary for the Past Weeks

 TemperatureHumidityPressure
High90 °F (Feb 22, 11:00 am)84% (Feb 8, 5:00 am)30.04 "Hg (Feb 8, 5:00 am)
Low73 °F (Feb 19, 6:25 am)79% (Feb 8, 6:00 am)29.80 "Hg (Feb 20, 4:00 pm)
Average83 °F83%29.92 "Hg
* Reported Feb 8 5:00 am — Feb 23 5:00 am, Vitória da Conquista. Weather by CustomWeather, © 2020

Note: Actual official high and low records may vary slightly from our data, if they occured in-between our weather recording intervals... More about our weather records

Vitória da Conquista Weather History for the Previous 24 Hours

Scroll right to see more
 ConditionsComfort  
Time TempWeatherWind HumidityBarometerVisibility
5:00 am
Sun, Feb 23
79 °FPassing clouds.2 mph84%29.89 "HgN/A
4:00 am79 °FPassing clouds.3 mph84%29.89 "HgN/A
3:00 am79 °FPassing clouds.5 mph84%29.86 "HgN/A
2:00 am81 °FPassing clouds.5 mph84%29.89 "HgN/A
1:00 am82 °FPassing clouds.8 mph79%29.89 "HgN/A
12:00 am82 °FPassing clouds.9 mph84%29.92 "HgN/A
11:00 pm
Sat, Feb 22
82 °FPassing clouds.12 mph84%29.95 "HgN/A
10:00 pm82 °FPassing clouds.14 mph84%29.95 "HgN/A
9:00 pm84 °FPassing clouds.14 mph79%29.92 "HgN/A
8:00 pm84 °FPassing clouds.13 mph79%29.89 "HgN/A
7:00 pm84 °FPassing clouds.13 mph79%29.86 "HgN/A
6:00 pm84 °FPassing clouds.10 mph84%29.86 "HgN/A
5:00 pm84 °FScattered clouds.13 mph84%29.83 "HgN/A
4:00 pm86 °FScattered clouds.10 mph84%29.83 "HgN/A
3:00 pm86 °FScattered clouds.10 mph84%29.86 "HgN/A
2:00 pm86 °FScattered clouds.12 mph84%29.86 "HgN/A
1:00 pm88 °FScattered clouds.9 mph84%29.89 "HgN/A
12:00 pm90 °FScattered clouds.10 mph79%29.92 "HgN/A
11:00 am90 °FScattered clouds.9 mph79%29.92 "HgN/A
10:00 am88 °FScattered clouds.5 mph84%29.95 "HgN/A
9:00 am86 °FScattered clouds.8 mph79%29.95 "HgN/A
8:00 am84 °FScattered clouds.7 mph79%29.95 "HgN/A
7:00 am81 °FScattered showers. Scattered clouds.6 mph84%29.92 "HgN/A
6:00 am79 °FScattered clouds.2 mph84%29.89 "HgN/A
Weather by CustomWeather, © 2020

See weather overview

Advertising